Greenwood, SC

12:52 AM EDT on July 28, 2017 (GMT -0400)
Greenwood County

Weather History for KGRD - December, 2012

Change the Weather History Date:

Sunday, December 2, 2012

  Actual Average (KAND) Record (KAND)
Temperature  
Mean Temperature 57 °F -  
Max Temperature 70 °F 56 °F 76 °F (1991)
Min Temperature 44 °F 36 °F 18 °F (1960)
Degree Days  
Heating Degree Days 8    
Growing Degree Days 7 (Base 50)    
Moisture  
Dew Point 48 °F    
Average Humidity 83    
Maximum Humidity 97    
Minimum Humidity 53    
Precipitation  
Precipitation 0.00 in - - ()
Sea Level Pressure  
Sea Level Pressure 30.34 in    
Wind  
Wind Speed 1 mph (SW)    
Max Wind Speed 7 mph    
Max Gust Speed -    
Visibility 9 miles    
Events      
Averages and records for this station are not official NWS values.
T = Trace of Precipitation, MM = Missing Value Source: NWS Daily Summary

Daily Weather History Graph

Daily Weather History Graph

Search for Another Location

Airport or City:

Trip Planner

Search our weather history database for the weather conditions in past years. The results will help you decide how hot, cold, wet, or windy it might be!

Date:

Astronomy

Dec. 02, 2012 Rise Set
Actual Time 7:17 AM EST 5:18 PM EST
Civil Twilight 6:50 AM EST 5:46 PM EST
Nautical Twilight 6:19 AM EST 6:17 PM EST
Astronomical Twilight 5:48 AM EST 6:47 PM EST
Moon 9:00 PM EST (12/2) 10:10 AM EST (12/2)
Length of Visible Light 10h 55m
Length of Day
10h 00m
Waning Gibbous, 86% of the Moon is Illuminated
Dec 2
Waning Gibbous
Dec 6
Last Quarter
Dec 13
New
Dec 20
First Quarter
Dec 28
Full

Hourly Weather History & Observations

Time (EST) Temp. Dew Point Humidity Pressure Visibility Wind Dir Wind Speed Gust Speed Precip Events Conditions
1:56 AM 44.1 °F 43.0 °F 96% 30.37 in 8.0 mi Calm Calm - N/A   Scattered Clouds
2:56 AM 44.1 °F 43.0 °F 96% 30.37 in 7.0 mi Calm Calm - N/A   Mostly Cloudy
3:56 AM 48.0 °F 46.0 °F 93% 30.36 in 9.0 mi Calm Calm - N/A   Overcast
4:56 AM 46.9 °F 45.0 °F 93% 30.35 in 9.0 mi Calm Calm - N/A   Overcast
5:56 AM 46.9 °F 45.0 °F 93% 30.37 in 9.0 mi Calm Calm - N/A   Overcast
6:56 AM 46.0 °F 44.1 °F 93% 30.38 in 7.0 mi Calm Calm - N/A   Partly Cloudy
7:56 AM 48.0 °F 46.0 °F 93% 30.40 in 7.0 mi Calm Calm - N/A   Mostly Cloudy
8:56 AM 52.0 °F 48.0 °F 86% 30.41 in 10.0 mi Calm Calm - N/A   Mostly Cloudy
9:56 AM 57.9 °F 50.0 °F 75% 30.40 in 10.0 mi Calm Calm - N/A   Mostly Cloudy
10:56 AM 63.0 °F 52.0 °F 67% 30.38 in 10.0 mi SSW 4.6 mph - N/A   Clear
11:56 AM 66.9 °F 53.1 °F 61% 30.36 in 10.0 mi WSW 6.9 mph - N/A   Clear
2:56 PM 70.0 °F 53.1 °F 55% 30.29 in 10.0 mi Variable 6.9 mph - N/A   Scattered Clouds
3:56 PM 70.0 °F 52.0 °F 53% 30.28 in 10.0 mi Variable 3.5 mph - N/A   Partly Cloudy
4:56 PM 66.0 °F 52.0 °F 60% 30.28 in 10.0 mi WSW 3.5 mph - N/A   Clear
5:56 PM 59.0 °F 51.1 °F 75% 30.29 in 10.0 mi Calm Calm - N/A   Clear
6:56 PM 57.0 °F 51.1 °F 81% 30.29 in 10.0 mi Calm Calm - N/A   Clear
7:56 PM 53.1 °F 50.0 °F 89% 30.30 in 10.0 mi Calm Calm - N/A   Clear
8:56 PM 53.1 °F 51.1 °F 93% 30.30 in 10.0 mi Calm Calm - N/A   Clear
9:56 PM 51.1 °F 48.9 °F 92% 30.30 in 10.0 mi Calm Calm - N/A   Clear
10:56 PM 48.9 °F 46.9 °F 93% 30.29 in 10.0 mi Calm Calm - N/A   Clear
11:56 PM 46.9 °F 46.0 °F 97% 30.30 in 10.0 mi Calm Calm - N/A   Clear